QPF
0.00 0.00 0.00 0.00 0.00 0.00 0.00 0.00 0.00 0.00 0.00 0.00 0.01 0.02 0.02 0.01 0.01 0.00 0.00 0.00 0.00 0.00 0.00 0.00 0.00 0.00 0.00 0.00 0.00 0.00 0.00 0.00 0.00 0.00 0.00 0.00 0.00 0.00 0.00 0.00 0.00 0.00 0.00 0.00 0.00 0.00 0.00 0.00 0.00
0.00 0.00 0.00 0.00 0.00 0.00 0.00 0.00 0.00 0.00 0.00 0.00 0.00 0.01 0.01 0.01 0.00 0.00 0.00 0.00 0.00 0.00 0.00 0.00 0.00 0.00 0.00 0.00 0.00 0.00 0.00 0.00 0.00 0.00 0.00 0.00 0.00 0.00 0.00 0.00 0.00 0.00 0.00 0.00 0.00 0.00 0.00 0.00 0.00
0.00 0.00 0.00 0.00 0.00 0.00 0.00 0.00 0.00 0.00 0.00 0.00 0.00 0.00 0.00 0.00 0.00 0.00 0.00 0.00 0.00 0.00 0.00 0.00 0.00 0.00 0.00 0.00 0.00 0.00 0.00 0.00 0.00 0.00 0.00 0.00 0.00 0.00 0.00 0.00 0.00 0.00 0.00 0.00 0.00 0.00 0.00 0.00 0.00
0.00 0.00 0.00 0.00 0.00 0.00 0.00 0.00 0.00 0.00 0.00 0.00 0.00 0.00 0.00 0.00 0.00 0.00 0.00 0.00 0.00 0.00 0.00 0.00 0.00 0.00 0.00 0.00 0.00 0.00 0.00 0.00 0.00 0.00 0.00 0.00 0.00 0.00 0.00 0.00 0.00 0.00 0.00 0.00 0.00 0.00 0.00 0.00 0.00
0.00 0.00 0.00 0.00 0.00 0.00 0.00 0.00 0.00 0.00 0.00 0.00 0.00 0.00 0.00 0.00 0.00 0.00 0.00 0.00 0.00 0.00 0.00 0.00 0.00 0.00 0.00 0.00 0.00 0.00 0.00 0.00 0.00 0.00 0.00 0.00 0.00 0.00 0.00 0.00 0.00 0.00 0.00 0.00 0.00 0.00 0.00 0.00 0.00
0.00 0.00 0.00 0.00 0.00 0.00 0.00 0.00 0.00 0.00 0.00 0.00 0.00 0.00 0.00 0.00 0.00 0.00 0.00 0.00 0.00 0.00 0.00 0.00 0.00 0.00 0.00 0.00 0.00 0.00 0.00 0.00 0.00 0.00 0.00 0.00 0.00 0.00 0.00 0.00 0.00 0.00 0.00 0.00 0.00 0.00 0.00 0.00 0.00
0.00 0.00 0.00 0.00 0.00 0.00 0.00 0.00 0.00 0.00 0.00 0.00 0.00 0.00 0.00 0.00 0.00 0.00 0.00 0.00 0.00 0.00 0.00 0.00 0.00 0.00 0.00 0.00 0.00 0.00 0.00 0.00 0.00 0.00 0.00 0.00 0.00 0.00 0.00 0.00 0.00 0.00 0.00 0.00 0.00 0.00 0.00 0.00 0.00
0.00 0.00 0.00 0.00 0.00 0.00 0.00 0.00 0.00 0.00 0.00 0.00 0.00 0.00 0.00 0.00 0.00 0.00 0.00 0.00 0.00 0.00 0.00 0.00 0.00 0.00 0.00 0.00 0.00 0.00 0.00 0.00 0.00 0.00 0.00 0.00 0.00 0.00 0.00 0.00 0.00 0.00 0.00 0.00 0.00 0.00 0.00 0.00 0.00
0.00 0.00 0.00 0.00 0.00 0.00 0.00 0.00 0.00 0.00 0.00 0.00 0.00 0.00 0.00 0.00 0.00 0.00 0.00 0.00 0.00 0.00 0.00 0.00 0.00 0.00 0.00 0.00 0.00 0.00 0.00 0.00 0.00 0.00 0.00 0.00 0.00 0.00 0.00 0.00 0.00 0.00 0.00 0.00 0.00 0.00 0.00 0.00 0.00
0.00 0.00 0.00 0.00 0.00 0.00 0.00 0.00 0.00 0.00 0.00 0.00 0.00 0.00 0.00 0.00 0.00 0.00 0.00 0.00 0.00 0.00 0.00 0.00 0.00 0.00 0.00 0.00 0.00 0.00 0.00 0.00 0.00 0.00 0.00 0.00 0.00 0.00 0.00 0.00 0.00 0.00 0.00 0.00 0.00 0.00 0.00 0.00 0.00
0.00 0.00 0.00 0.00 0.00 0.00 0.00 0.00 0.00 0.00 0.00 0.00 0.00 0.00 0.00 0.00 0.00 0.00 0.00 0.00 0.00 0.00 0.00 0.00 0.00 0.00 0.00 0.00 0.00 0.00 0.00 0.00 0.00 0.00 0.00 0.00 0.00 0.00 0.00 0.00 0.00 0.00 0.00 0.00 0.00 0.00 0.00 0.00 0.00
0.00 0.00 0.00 0.00 0.00 0.00 0.00 0.00 0.00 0.00 0.00 0.00 0.00 0.00 0.00 0.00 0.00 0.00 0.00 0.00 0.00 0.00 0.00 0.00 0.00 0.00 0.00 0.00 0.00 0.00 0.00 0.00 0.00 0.00 0.00 0.00 0.00 0.00 0.00 0.00 0.00 0.00 0.00 0.00 0.00 0.00 0.00 0.00 0.00
0.00 0.00 0.00 0.00 0.00 0.00 0.00 0.00 0.00 0.00 0.00 0.00 0.00 0.00 0.00 0.00 0.00 0.00 0.00 0.00 0.00 0.00 0.00 0.00 0.00 0.00 0.00 0.00 0.00 0.00 0.00 0.00 0.00 0.00 0.00 0.00 0.00 0.00 0.00 0.00 0.00 0.00 0.00 0.00 0.00 0.00 0.00 0.00 0.00
0.00 0.00 0.00 0.00 0.00 0.00 0.00 0.00 0.00 0.00 0.00 0.00 0.00 0.00 0.00 0.00 0.00 0.00 0.00 0.00 0.00 0.00 0.00 0.00 0.00 0.00 0.00 0.00 0.00 0.00 0.00 0.00 0.00 0.00 0.00 0.00 0.00 0.00 0.00 0.00 0.00 0.00 0.00 0.00 0.00 0.00 0.00 0.00 0.00
0.00 0.00 0.00 0.00 0.00 0.00 0.00 0.00 0.00 0.00 0.00 0.00 0.00 0.00 0.00 0.00 0.00 0.00 0.00 0.00 0.00 0.00 0.00 0.01 0.00 0.00 0.00 0.00 0.00 0.00 0.00 0.00 0.00 0.00 0.00 0.00 0.00 0.00 0.00 0.00 0.00 0.00 0.00 0.00 0.00 0.00 0.00 0.00 0.00
0.00 0.00 0.00 0.00 0.00 0.00 0.00 0.00 0.00 0.00 0.00 0.00 0.00 0.00 0.00 0.00 0.00 0.00 0.00 0.00 0.00 0.00 0.02 0.06 0.08 0.08 0.03 0.00 0.00 0.00 0.00 0.00 0.00 0.00 0.00 0.00 0.00 0.00 0.00 0.00 0.00 0.00 0.00 0.00 0.00 0.00 0.00 0.00 0.00
0.00 0.00 0.00 0.00 0.00 0.00 0.00 0.00 0.00 0.00 0.00 0.00 0.00 0.00 0.00 0.00 0.00 0.00 0.00 0.00 0.00 0.00 0.03 0.18 0.19 0.13 0.08 0.02 0.02 0.00 0.00 0.00 0.00 0.00 0.00 0.00 0.00 0.00 0.00 0.00 0.00 0.00 0.00 0.00 0.00 0.00 0.00 0.00 0.00
0.00 0.00 0.00 0.00 0.00 0.00 0.00 0.00 0.00 0.00 0.00 0.00 0.00 0.00 0.00 0.00 0.00 0.00 0.00 0.00 0.00 0.01 0.14 0.25 0.23 0.13 0.06 0.03 0.01 0.00 0.00 0.00 0.00 0.00 0.00 0.00 0.00 0.00 0.00 0.00 0.00 0.00 0.00 0.00 0.00 0.00 0.00 0.00 0.00
0.00 0.00 0.00 0.00 0.00 0.00 0.00 0.00 0.00 0.00 0.00 0.00 0.00 0.00 0.00 0.00 0.00 0.00 0.00 0.00 0.00 0.04 0.12 0.14 0.10 0.04 0.03 0.01 0.01 0.00 0.00 0.00 0.00 0.00 0.00 0.00 0.00 0.00 0.00 0.00 0.00 0.00 0.00 0.00 0.00 0.00 0.00 0.00 0.00
0.00 0.00 0.00 0.00 0.00 0.00 0.00 0.00 0.00 0.00 0.00 0.00 0.00 0.00 0.00 0.00 0.00 0.00 0.01 0.01 0.02 0.03 0.06 0.04 0.01 0.00 0.00 0.00 0.00 0.00 0.00 0.00 0.00 0.00 0.00 0.00 0.00 0.00 0.00 0.00 0.00 0.00 0.00 0.00 0.00 0.00 0.00 0.00 0.00
0.00 0.00 0.00 0.00 0.00 0.00 0.00 0.00 0.00 0.00 0.00 0.00 0.00 0.00 0.00 0.00 0.00 0.01 0.02 0.03 0.03 0.01 0.00 0.00 0.00 0.00 0.00 0.00 0.00 0.00 0.00 0.00 0.00 0.00 0.00 0.00 0.00 0.00 0.00 0.00 0.00 0.00 0.00 0.00 0.00 0.00 0.00 0.00 0.00
0.00 0.00 0.00 0.00 0.00 0.00 0.00 0.00 0.00 0.00 0.00 0.00 0.00 0.00 0.00 0.00 0.01 0.01 0.01 0.01 0.00 0.00 0.00 0.00 0.00 0.00 0.00 0.00 0.00 0.00 0.00 0.00 0.00 0.00 0.00 0.00 0.00 0.00 0.00 0.00 0.00 0.00 0.00 0.00 0.00 0.00 0.00 0.00 0.00
0.00 0.00 0.00 0.00 0.00 0.00 0.00 0.00 0.00 0.00 0.00 0.00 0.00 0.00 0.00 0.00 0.00 0.00 0.00 0.00 0.00 0.00 0.00 0.00 0.00 0.00 0.00 0.00 0.00 0.00 0.00 0.00 0.00 0.00 0.00 0.00 0.00 0.00 0.00 0.00 0.00 0.00 0.00 0.00 0.00 0.00 0.00 0.00 0.00
0.00 0.00 0.00 0.00 0.00 0.00 0.00 0.00 0.00 0.00 0.00 0.00 0.00 0.00 0.00 0.00 0.00 0.00 0.00 0.00 0.00 0.00 0.00 0.00 0.00 0.00 0.00 0.00 0.00 0.00 0.00 0.00 0.00 0.00 0.00 0.00 0.00 0.00 0.00 0.00 0.00 0.00 0.00 0.00 0.00 0.00 0.00 0.00 0.00
0.00 0.00 0.00 0.00 0.00 0.00 0.00 0.00 0.00 0.00 0.00 0.00 0.00 0.00 0.00 0.00 0.00 0.00 0.00 0.00 0.00 0.00 0.00 0.00 0.00 0.00 0.00 0.00 0.00 0.00 0.00 0.00 0.00 0.00 0.00 0.00 0.00 0.00 0.00 0.00 0.00 0.00 0.00 0.00 0.00 0.00 0.00 0.00 0.00
0.00 0.00 0.00 0.00 0.00 0.00 0.00 0.00 0.00 0.00 0.00 0.00 0.00 0.00 0.00 0.00 0.00 0.00 0.00 0.00 0.00 0.00 0.00 0.00 0.00 0.00 0.00 0.00 0.00 0.00 0.00 0.00 0.00 0.00 0.00 0.00 0.00 0.00 0.00 0.00 0.00 0.00 0.00 0.00 0.00 0.00 0.00 0.00 0.00
0.00 0.00 0.00 0.00 0.00 0.00 0.00 0.00 0.00 0.00 0.00 0.00 0.00 0.00 0.00 0.00 0.00 0.00 0.00 0.00 0.00 0.00 0.00 0.00 0.00 0.00 0.00 0.00 0.00 0.00 0.00 0.00 0.00 0.00 0.00 0.00 0.00 0.00 0.00 0.00 0.00 0.00 0.00 0.00 0.00 0.00 0.00 0.00 0.00
0.00 0.00 0.00 0.00 0.00 0.00 0.00 0.00 0.00 0.00 0.00 0.00 0.00 0.00 0.00 0.00 0.00 0.00 0.00 0.00 0.00 0.00 0.00 0.00 0.00 0.00 0.00 0.00 0.00 0.00 0.00 0.00 0.00 0.00 0.00 0.00 0.00 0.00 0.00 0.00 0.00 0.00 0.00 0.00 0.00 0.00 0.00 0.00 0.00
0.00 0.00 0.00 0.00 0.00 0.00 0.00 0.00 0.00 0.00 0.00 0.00 0.00 0.00 0.00 0.00 0.00 0.00 0.00 0.00 0.00 0.00 0.00 0.00 0.00 0.00 0.00 0.00 0.00 0.00 0.00 0.00 0.00 0.00 0.00 0.00 0.00 0.00 0.00 0.00 0.00 0.00 0.00 0.00 0.00 0.00 0.00 0.00 0.00
0.00 0.00 0.00 0.00 0.00 0.00 0.00 0.00 0.00 0.00 0.00 0.00 0.00 0.00 0.00 0.00 0.00 0.00 0.00 0.00 0.00 0.00 0.00 0.00 0.00 0.00 0.00 0.00 0.00 0.00 0.00 0.00 0.00 0.00 0.00 0.00 0.00 0.00 0.00 0.00 0.00 0.00 0.00 0.00 0.00 0.00 0.00 0.00 0.00
MSLP
1012.48 1012.09 1011.80 1012.28 1013.81 1013.76 1013.21 1012.34 1011.67 1011.61 1011.96 1012.08 1012.10 1012.62 1013.71 1014.52 1015.22 1016.08 1015.83 1016.13 1016.16 1016.75 1017.18 1017.30 1017.43 1017.66 1017.74 1017.89 1018.09 1018.32 1018.49 1018.64 1018.83 1018.97 1019.06 1019.29 1019.36 1019.36 1019.39 1019.38 1019.50 1019.42 1019.51 1019.63 1019.46 1019.57 1019.58 1019.62 1019.53
1012.38 1012.13 1011.97 1012.66 1013.67 1013.85 1012.67 1011.60 1011.54 1011.28 1011.97 1012.05 1012.44 1013.35 1013.85 1015.10 1015.24 1015.72 1016.50 1016.60 1016.49 1016.99 1017.30 1017.52 1017.66 1017.78 1018.05 1018.19 1018.41 1018.70 1018.81 1018.87 1018.97 1019.15 1019.46 1019.53 1019.61 1019.69 1019.66 1019.74 1019.78 1019.71 1019.69 1019.81 1019.79 1019.86 1019.87 1020.02 1019.84
1012.52 1011.94 1012.27 1013.37 1013.80 1013.45 1012.35 1011.25 1011.44 1011.64 1011.62 1012.09 1013.36 1013.93 1014.65 1015.75 1015.36 1015.91 1016.39 1016.74 1017.05 1017.48 1017.38 1017.67 1017.83 1017.99 1018.24 1018.54 1018.74 1019.01 1019.12 1019.12 1019.20 1019.33 1019.43 1019.57 1019.69 1019.77 1019.86 1019.85 1020.02 1019.89 1019.95 1019.98 1020.03 1020.04 1020.20 1020.34 1020.00
1012.51 1012.33 1013.14 1013.23 1013.49 1012.55 1012.05 1011.29 1011.17 1011.69 1012.01 1012.45 1013.11 1014.81 1014.89 1015.65 1015.90 1015.92 1016.65 1016.88 1017.34 1017.70 1017.68 1017.88 1018.03 1018.26 1018.47 1018.76 1019.02 1019.17 1019.18 1019.40 1019.44 1019.52 1019.64 1019.80 1019.86 1019.97 1020.06 1020.13 1020.18 1020.15 1020.01 1020.04 1020.23 1020.21 1020.16 1020.43 1020.17
1012.51 1012.91 1013.28 1013.59 1013.10 1012.34 1011.49 1011.50 1011.28 1011.60 1012.22 1012.50 1013.16 1014.75 1015.83 1016.53 1016.12 1016.53 1017.06 1017.37 1017.56 1017.87 1017.88 1018.18 1018.34 1018.49 1018.60 1018.90 1019.21 1019.35 1019.45 1019.70 1019.69 1019.74 1019.81 1019.92 1020.10 1020.24 1020.37 1020.36 1020.40 1020.56 1020.44 1020.24 1020.35 1020.28 1020.50 1020.36 1020.28
1012.45 1013.17 1013.58 1013.79 1013.07 1012.00 1011.51 1011.60 1011.93 1011.77 1012.35 1012.74 1013.74 1014.79 1016.51 1016.79 1016.53 1017.06 1017.35 1017.74 1017.83 1017.90 1018.27 1018.41 1018.57 1018.69 1018.91 1019.14 1019.37 1019.52 1019.61 1019.80 1019.83 1019.83 1019.96 1020.06 1020.23 1020.47 1020.51 1020.57 1020.47 1020.42 1020.58 1020.41 1020.65 1020.49 1020.49 1020.32 1020.31
1012.56 1013.09 1013.32 1013.46 1013.05 1012.06 1011.86 1011.65 1012.34 1011.88 1012.45 1013.04 1013.64 1015.45 1016.90 1017.22 1017.09 1017.28 1017.65 1017.97 1018.07 1018.33 1018.57 1018.79 1018.76 1018.76 1019.07 1019.25 1019.49 1019.46 1019.58 1019.67 1019.74 1019.87 1019.96 1020.01 1020.28 1020.58 1020.58 1020.66 1020.93 1020.59 1020.61 1020.46 1020.65 1020.64 1020.54 1020.38 1020.34
1012.18 1012.64 1012.93 1012.80 1012.59 1012.77 1011.90 1011.91 1012.22 1012.31 1012.73 1012.94 1013.34 1015.19 1016.58 1016.62 1017.33 1017.72 1018.06 1018.29 1018.51 1018.60 1018.66 1018.95 1018.93 1019.03 1019.26 1019.40 1019.38 1019.37 1019.52 1019.76 1019.91 1020.15 1020.39 1020.53 1020.90 1020.78 1020.68 1020.77 1020.87 1020.93 1020.79 1020.59 1020.59 1020.66 1020.71 1020.61 1020.43
1012.21 1012.73 1012.81 1012.32 1012.10 1012.47 1011.65 1012.56 1012.40 1012.29 1012.71 1013.22 1013.47 1013.97 1014.81 1016.28 1017.40 1018.05 1018.42 1018.77 1018.86 1019.04 1019.16 1019.13 1019.12 1019.10 1019.27 1019.46 1019.45 1019.54 1019.65 1019.81 1020.03 1020.26 1020.52 1020.61 1020.83 1020.85 1020.97 1020.72 1021.02 1020.89 1020.91 1020.78 1020.90 1020.78 1020.80 1020.85 1020.67
1012.22 1012.64 1012.10 1011.19 1010.92 1011.28 1011.47 1011.76 1012.25 1012.74 1013.44 1014.02 1013.96 1014.61 1015.48 1016.87 1017.27 1017.61 1018.16 1018.61 1018.75 1018.97 1019.28 1019.15 1019.03 1019.13 1019.41 1019.46 1019.60 1019.76 1019.81 1020.03 1020.30 1020.38 1020.49 1020.69 1020.88 1020.96 1021.03 1020.78 1021.00 1021.21 1021.20 1021.06 1021.15 1020.89 1020.86 1020.98 1020.99
1011.76 1011.33 1010.62 1010.38 1010.52 1010.37 1011.78 1012.18 1012.33 1013.01 1013.86 1013.70 1014.26 1015.17 1015.91 1016.57 1017.02 1017.37 1017.84 1017.86 1017.77 1018.53 1018.82 1019.06 1019.24 1019.48 1019.52 1019.40 1019.50 1019.79 1020.01 1019.93 1020.23 1020.39 1020.49 1020.78 1020.84 1020.94 1021.06 1021.27 1021.30 1021.45 1021.44 1021.38 1021.33 1021.08 1021.06 1021.15 1021.10
1011.09 1010.66 1010.48 1010.16 1010.60 1011.11 1011.71 1011.89 1012.50 1012.76 1012.91 1013.12 1013.53 1014.48 1015.65 1016.43 1016.65 1017.06 1017.30 1017.76 1018.05 1018.44 1018.43 1018.63 1018.97 1019.21 1019.29 1019.04 1019.49 1019.50 1019.73 1020.02 1020.04 1020.11 1020.45 1020.87 1021.14 1021.27 1021.30 1021.61 1021.54 1021.61 1021.64 1021.61 1021.59 1021.38 1021.19 1021.16 1021.01
1010.80 1010.58 1010.21 1010.13 1010.32 1011.00 1011.33 1011.69 1012.06 1012.74 1012.94 1013.66 1014.22 1015.15 1015.45 1015.90 1016.27 1016.41 1016.58 1017.08 1018.02 1018.37 1018.19 1018.47 1019.01 1019.13 1019.11 1019.29 1019.34 1019.55 1019.68 1019.73 1019.91 1020.35 1020.58 1020.89 1020.92 1021.24 1021.50 1021.55 1021.45 1021.44 1021.42 1021.49 1021.44 1021.28 1021.17 1021.17 1021.00
1010.44 1010.63 1010.63 1010.45 1010.71 1010.91 1011.35 1011.77 1012.09 1013.32 1013.50 1014.08 1014.42 1015.05 1015.41 1015.61 1015.77 1016.29 1016.69 1017.06 1017.55 1017.70 1017.76 1018.03 1018.77 1018.71 1018.89 1019.16 1019.16 1019.37 1019.75 1019.76 1019.86 1020.42 1020.76 1021.11 1021.17 1021.36 1021.30 1021.57 1021.73 1021.75 1021.72 1021.60 1021.55 1021.53 1021.50 1021.37 1021.17
1010.73 1011.36 1011.17 1011.22 1011.04 1011.28 1011.37 1012.33 1012.83 1013.33 1014.00 1014.25 1014.66 1014.94 1015.51 1015.73 1016.19 1016.11 1016.72 1017.01 1017.01 1016.94 1017.42 1018.37 1018.83 1018.81 1018.73 1019.13 1019.42 1019.84 1019.88 1020.01 1020.25 1020.74 1021.10 1021.20 1021.35 1021.77 1022.01 1022.18 1022.39 1022.33 1022.18 1021.99 1021.76 1021.64 1021.44 1021.39 1021.30
1011.41 1011.92 1012.23 1011.70 1011.62 1011.77 1011.88 1012.71 1012.99 1013.73 1014.27 1014.86 1015.22 1015.66 1016.29 1016.90 1017.04 1016.80 1016.81 1016.92 1017.08 1017.27 1018.29 1019.22 1019.44 1019.81 1019.93 1019.62 1020.04 1020.44 1020.56 1020.79 1020.82 1021.30 1021.69 1021.79 1022.02 1022.25 1022.53 1022.65 1022.82 1022.67 1022.37 1022.22 1022.07 1021.99 1021.62 1021.60 1021.59
1012.40 1012.68 1012.48 1012.11 1011.82 1012.11 1012.49 1013.14 1013.60 1014.11 1014.72 1015.44 1016.31 1016.83 1017.28 1017.69 1017.91 1017.76 1017.40 1017.10 1017.48 1017.88 1018.84 1019.78 1020.23 1020.40 1020.71 1020.65 1020.65 1020.89 1021.15 1021.33 1021.59 1021.87 1022.29 1022.62 1022.78 1022.92 1022.97 1023.31 1023.44 1023.07 1022.73 1022.70 1022.46 1022.40 1022.08 1021.95 1021.59
1012.82 1012.81 1012.84 1012.58 1012.40 1012.57 1013.35 1013.53 1014.25 1014.66 1015.62 1016.76 1017.34 1017.60 1018.03 1018.49 1018.80 1018.37 1017.90 1017.89 1018.17 1018.97 1019.42 1020.22 1020.47 1020.54 1021.23 1021.07 1021.17 1021.44 1021.70 1022.05 1022.41 1022.86 1023.08 1023.08 1023.17 1023.26 1023.32 1023.44 1023.34 1023.27 1023.07 1022.87 1022.76 1022.63 1022.24 1022.07 1021.97
1012.44 1012.81 1012.99 1012.91 1012.57 1013.11 1014.07 1015.09 1015.68 1015.97 1016.69 1017.61 1018.20 1018.34 1018.79 1018.95 1019.24 1019.13 1018.82 1018.56 1018.90 1019.49 1019.87 1020.37 1020.53 1020.91 1020.87 1021.41 1022.03 1022.12 1022.82 1023.20 1023.43 1023.49 1023.50 1023.49 1023.53 1023.59 1023.83 1023.97 1023.92 1023.80 1023.75 1023.80 1023.50 1023.06 1022.76 1022.48 1022.23
1012.60 1012.93 1013.15 1013.11 1013.09 1013.61 1015.12 1016.41 1016.84 1017.35 1017.98 1018.28 1018.53 1019.05 1019.39 1019.76 1020.07 1019.81 1019.51 1019.60 1019.84 1020.39 1020.55 1020.67 1020.68 1020.99 1021.34 1021.84 1022.31 1022.56 1023.27 1023.77 1023.91 1024.04 1023.94 1023.84 1023.93 1024.08 1024.16 1024.18 1024.05 1023.93 1023.84 1023.71 1023.60 1023.52 1023.43 1023.13 1022.99
1013.40 1013.46 1013.50 1013.62 1013.88 1014.56 1015.74 1017.44 1018.16 1018.64 1018.61 1018.96 1019.56 1020.00 1020.31 1020.47 1020.65 1020.84 1020.77 1020.92 1020.95 1020.97 1021.08 1021.08 1021.23 1021.40 1021.66 1021.86 1022.26 1022.94 1023.48 1023.94 1024.32 1024.50 1024.61 1024.52 1024.27 1024.16 1024.05 1024.05 1024.10 1024.09 1024.05 1024.12 1024.02 1023.90 1023.87 1023.76 1023.40
1013.56 1013.56 1013.84 1014.38 1015.16 1016.05 1016.66 1018.68 1019.01 1019.38 1019.67 1019.96 1020.35 1020.45 1020.58 1020.84 1021.02 1021.10 1021.56 1021.60 1021.60 1021.51 1021.26 1021.29 1021.46 1021.65 1021.82 1021.75 1022.16 1022.58 1023.15 1023.93 1024.55 1024.74 1024.74 1024.50 1024.29 1024.17 1024.05 1024.04 1024.00 1024.02 1024.11 1024.14 1023.99 1023.98 1024.14 1024.07 1024.05
1013.82 1014.13 1014.81 1015.52 1016.44 1017.01 1017.67 1018.61 1019.29 1019.89 1020.40 1020.43 1020.52 1020.56 1020.66 1020.97 1021.12 1021.21 1021.36 1021.39 1021.74 1022.08 1022.03 1021.88 1021.97 1022.25 1022.42 1022.53 1022.68 1022.99 1023.48 1023.84 1024.26 1024.44 1024.51 1024.45 1024.34 1024.14 1024.02 1023.91 1023.87 1023.95 1023.99 1023.97 1023.93 1023.98 1023.98 1023.97 1024.01
1013.83 1014.82 1015.93 1016.86 1017.61 1018.34 1018.45 1018.84 1019.62 1019.43 1019.48 1020.10 1020.46 1020.74 1021.06 1021.26 1021.39 1021.30 1021.57 1021.53 1021.93 1022.36 1022.19 1022.27 1022.50 1022.70 1022.63 1022.55 1022.74 1023.05 1023.57 1024.12 1024.46 1024.54 1024.43 1024.29 1024.30 1024.20 1023.97 1023.73 1023.73 1023.81 1023.84 1023.85 1023.88 1023.90 1023.93 1023.84 1023.76
1014.35 1015.82 1017.43 1018.78 1019.21 1019.58 1018.99 1019.01 1018.93 1018.77 1019.00 1019.73 1020.37 1020.78 1021.03 1021.17 1021.40 1021.70 1022.05 1021.94 1022.09 1022.41 1022.54 1022.75 1022.68 1022.82 1022.90 1023.02 1023.25 1023.49 1023.81 1024.11 1024.24 1024.13 1024.12 1024.21 1024.16 1024.04 1023.74 1023.63 1023.66 1023.61 1023.57 1023.69 1023.71 1023.82 1023.79 1023.69 1023.54
1015.04 1016.20 1017.77 1019.35 1020.43 1020.38 1019.47 1019.33 1018.86 1018.50 1018.54 1019.45 1020.21 1020.59 1021.01 1021.57 1021.98 1022.39 1022.21 1022.28 1022.33 1022.28 1022.72 1023.00 1023.08 1023.15 1023.30 1023.42 1023.57 1023.72 1023.74 1023.69 1023.66 1023.64 1023.66 1023.74 1023.71 1023.51 1023.25 1023.21 1023.30 1023.25 1023.20 1023.33 1023.45 1023.48 1023.57 1023.41 1023.30
1015.25 1016.56 1017.65 1019.67 1021.49 1021.32 1020.81 1019.95 1019.30 1019.24 1019.35 1019.88 1020.25 1020.56 1021.23 1021.72 1021.79 1022.17 1022.27 1022.29 1022.39 1022.59 1022.88 1023.07 1023.19 1023.40 1023.65 1023.86 1023.77 1023.65 1023.56 1023.55 1023.45 1023.38 1023.43 1023.34 1023.27 1023.02 1023.11 1023.17 1023.13 1022.97 1022.94 1022.78 1023.14 1023.27 1023.40 1023.31 1022.99
1015.10 1016.57 1018.15 1019.89 1021.86 1022.41 1021.72 1020.76 1019.92 1019.80 1020.07 1020.20 1020.81 1020.96 1021.55 1021.87 1022.14 1022.44 1022.53 1022.62 1022.78 1022.97 1023.06 1022.95 1023.09 1023.41 1023.54 1023.50 1023.32 1023.34 1023.42 1023.45 1023.41 1023.44 1023.29 1023.10 1022.88 1022.85 1022.67 1023.00 1023.27 1023.02 1022.79 1022.64 1022.80 1022.87 1022.92 1023.00 1022.82
1015.96 1016.91 1018.61 1020.43 1022.04 1022.81 1022.52 1021.13 1019.35 1019.34 1019.72 1020.21 1020.76 1021.24 1021.63 1022.25 1022.71 1023.05 1023.10 1023.01 1023.15 1023.15 1023.22 1023.35 1023.57 1023.57 1023.58 1023.49 1023.47 1023.54 1023.54 1023.47 1023.43 1023.39 1023.03 1022.78 1022.67 1023.16 1023.19 1023.05 1023.33 1023.41 1022.66 1022.70 1022.53 1022.48 1022.51 1022.61 1022.71
1016.30 1017.27 1018.76 1021.10 1022.73 1023.37 1022.92 1020.96 1019.47 1019.37 1019.65 1020.21 1020.97 1021.50 1022.00 1022.42 1022.95 1023.07 1023.03 1023.06 1023.26 1023.46 1023.49 1023.59 1023.73 1023.73 1023.58 1023.59 1023.67 1023.67 1023.57 1023.48 1023.38 1023.21 1023.05 1023.13 1022.97 1022.59 1022.57 1022.52 1022.71 1023.00 1022.59 1022.61 1022.42 1022.38 1022.58 1022.68 1022.76
Thickness
5714 5716 5722 5713 5681 5673 5671 5693 5719 5713 5712 5725 5729 5723 5710 5705 5700 5691 5712 5711 5710 5703 5697 5694 5692 5689 5687 5685 5684 5680 5678 5677 5676 5675 5674 5671 5669 5668 5666 5665 5661 5659 5656 5653 5653 5650 5647 5645 5644
5711 5714 5713 5698 5670 5660 5679 5710 5709 5717 5717 5725 5723 5714 5706 5693 5704 5702 5699 5703 5702 5697 5692 5691 5688 5685 5683 5682 5679 5676 5676 5675 5675 5673 5669 5668 5666 5664 5663 5661 5659 5656 5655 5651 5649 5647 5645 5642 5641
5708 5713 5698 5676 5659 5659 5677 5711 5708 5717 5722 5717 5705 5706 5698 5687 5700 5698 5699 5697 5691 5688 5690 5688 5684 5683 5680 5677 5675 5673 5672 5673 5673 5671 5669 5667 5664 5662 5660 5658 5655 5654 5651 5648 5646 5644 5641 5638 5639
5702 5700 5691 5671 5662 5678 5692 5707 5715 5712 5712 5716 5709 5687 5699 5698 5695 5700 5695 5691 5686 5684 5686 5683 5682 5679 5677 5674 5672 5671 5672 5670 5669 5668 5665 5662 5661 5658 5656 5654 5651 5650 5649 5647 5643 5642 5639 5635 5635
5701 5688 5671 5664 5671 5689 5700 5707 5714 5707 5703 5705 5703 5682 5681 5686 5696 5693 5688 5684 5684 5682 5682 5679 5677 5676 5675 5671 5668 5667 5667 5666 5666 5663 5662 5659 5657 5653 5651 5649 5647 5644 5642 5642 5639 5638 5634 5633 5632
5684 5679 5657 5653 5671 5685 5699 5706 5705 5704 5703 5701 5692 5686 5677 5688 5689 5686 5683 5680 5680 5680 5677 5675 5674 5673 5671 5669 5667 5667 5667 5664 5663 5661 5658 5656 5652 5648 5646 5644 5643 5642 5638 5637 5633 5632 5631 5630 5627
5678 5670 5665 5666 5663 5680 5693 5706 5695 5701 5700 5696 5701 5676 5674 5678 5682 5681 5678 5676 5675 5674 5673 5671 5672 5672 5670 5669 5667 5667 5666 5663 5662 5659 5657 5654 5650 5645 5643 5640 5635 5637 5634 5633 5629 5627 5626 5625 5623
5682 5676 5668 5669 5664 5662 5696 5698 5701 5700 5694 5709 5707 5676 5665 5680 5679 5675 5672 5671 5671 5671 5671 5670 5671 5670 5669 5667 5666 5665 5663 5660 5658 5654 5649 5645 5640 5640 5638 5635 5632 5629 5628 5627 5626 5622 5620 5619 5619
5688 5660 5654 5670 5673 5676 5696 5684 5697 5706 5700 5702 5704 5696 5694 5685 5677 5670 5666 5666 5667 5667 5667 5669 5670 5670 5667 5664 5663 5662 5660 5658 5654 5649 5645 5641 5638 5635 5631 5631 5626 5624 5622 5621 5618 5616 5614 5611 5611
5674 5653 5665 5687 5694 5688 5693 5693 5694 5692 5688 5684 5688 5691 5688 5678 5676 5673 5669 5667 5667 5667 5667 5668 5669 5668 5664 5661 5660 5658 5657 5653 5649 5646 5643 5639 5634 5631 5627 5627 5622 5617 5615 5613 5610 5610 5607 5603 5602
5675 5672 5693 5698 5702 5706 5691 5690 5697 5685 5676 5684 5681 5681 5681 5678 5676 5674 5671 5673 5676 5671 5669 5668 5664 5662 5661 5660 5659 5655 5651 5650 5645 5642 5638 5633 5630 5627 5624 5620 5615 5612 5608 5605 5602 5602 5598 5595 5593
5679 5691 5695 5704 5698 5696 5689 5698 5691 5692 5690 5695 5694 5690 5682 5677 5677 5674 5674 5673 5670 5668 5670 5669 5664 5660 5659 5660 5654 5652 5649 5645 5642 5639 5634 5629 5625 5621 5616 5610 5607 5604 5600 5596 5594 5593 5591 5588 5588
5682 5690 5699 5703 5704 5700 5702 5698 5697 5694 5694 5693 5689 5684 5682 5681 5679 5681 5682 5679 5669 5666 5669 5668 5660 5659 5657 5655 5653 5649 5645 5642 5638 5632 5626 5623 5621 5614 5606 5602 5599 5596 5593 5590 5588 5587 5586 5583 5583
5692 5691 5693 5702 5700 5703 5695 5696 5700 5687 5690 5687 5687 5683 5682 5681 5682 5680 5677 5676 5671 5672 5670 5666 5658 5658 5656 5651 5651 5647 5641 5637 5633 5626 5621 5615 5611 5605 5601 5593 5588 5585 5582 5581 5580 5578 5576 5575 5573
5689 5679 5687 5689 5696 5694 5697 5685 5683 5688 5688 5686 5685 5684 5680 5680 5678 5680 5676 5674 5676 5676 5672 5660 5655 5654 5652 5648 5644 5637 5632 5628 5621 5615 5608 5604 5599 5592 5586 5581 5576 5572 5570 5569 5568 5567 5566 5564 5563
5679 5671 5657 5683 5689 5689 5688 5662 5688 5683 5684 5679 5678 5677 5673 5670 5669 5675 5677 5672 5673 5670 5659 5649 5644 5638 5634 5634 5629 5623 5617 5612 5609 5600 5594 5590 5584 5579 5574 5570 5565 5563 5562 5560 5558 5556 5557 5554 5552
5659 5651 5663 5673 5687 5685 5683 5670 5683 5680 5681 5675 5668 5663 5662 5660 5659 5663 5666 5668 5665 5661 5651 5641 5634 5630 5621 5619 5618 5613 5608 5602 5595 5588 5581 5574 5568 5562 5559 5554 5549 5549 5549 5546 5546 5544 5542 5540 5541
5654 5659 5658 5659 5674 5678 5672 5671 5677 5674 5671 5660 5653 5654 5654 5652 5650 5655 5657 5657 5653 5645 5641 5633 5628 5623 5613 5615 5608 5600 5596 5588 5581 5574 5566 5560 5554 5549 5545 5540 5537 5534 5533 5532 5530 5528 5528 5525 5522
5672 5660 5658 5665 5678 5669 5667 5655 5653 5660 5653 5648 5646 5648 5646 5646 5645 5647 5648 5650 5644 5638 5632 5627 5622 5614 5609 5600 5593 5588 5578 5572 5565 5558 5552 5547 5542 5537 5531 5526 5522 5519 5514 5510 5509 5508 5506 5503 5499
5666 5657 5661 5671 5672 5667 5651 5637 5643 5644 5642 5643 5644 5640 5638 5635 5632 5634 5636 5633 5629 5624 5622 5618 5613 5605 5598 5590 5582 5577 5566 5556 5548 5542 5538 5533 5527 5521 5515 5512 5508 5503 5497 5492 5487 5482 5478 5476 5470
5653 5653 5658 5662 5662 5659 5649 5631 5629 5635 5639 5640 5633 5631 5629 5628 5625 5623 5623 5621 5619 5618 5614 5611 5605 5598 5591 5584 5574 5562 5553 5544 5536 5529 5523 5519 5516 5511 5507 5500 5493 5486 5480 5472 5466 5459 5453 5447 5444
5650 5664 5663 5659 5646 5626 5643 5603 5625 5627 5623 5624 5623 5622 5622 5620 5618 5616 5610 5608 5607 5606 5604 5601 5595 5588 5581 5575 5566 5557 5547 5534 5523 5518 5513 5509 5504 5499 5494 5488 5482 5474 5466 5458 5450 5442 5432 5423 5416
5653 5662 5656 5652 5634 5632 5630 5606 5615 5619 5614 5617 5617 5618 5618 5616 5614 5610 5608 5608 5602 5594 5589 5587 5582 5576 5570 5564 5557 5549 5541 5533 5524 5516 5511 5505 5498 5492 5484 5477 5468 5458 5448 5438 5428 5416 5406 5397 5389
5666 5652 5638 5630 5624 5600 5624 5611 5602 5610 5618 5616 5615 5614 5612 5608 5606 5606 5603 5600 5592 5583 5580 5577 5571 5565 5560 5557 5550 5543 5534 5524 5516 5509 5501 5493 5485 5475 5466 5457 5446 5435 5425 5415 5405 5393 5382 5373 5363
5650 5630 5596 5596 5587 5590 5617 5610 5608 5621 5623 5618 5609 5607 5607 5606 5603 5598 5593 5590 5585 5577 5571 5567 5565 5559 5553 5546 5539 5531 5522 5513 5505 5498 5488 5476 5465 5455 5447 5438 5428 5415 5402 5390 5378 5366 5356 5347 5338
5641 5630 5593 5608 5583 5590 5614 5604 5607 5621 5620 5614 5608 5605 5602 5597 5592 5586 5584 5580 5577 5571 5564 5557 5553 5548 5541 5533 5526 5518 5511 5504 5496 5486 5475 5463 5452 5443 5431 5418 5403 5390 5378 5365 5353 5342 5331 5321 5313
5641 5618 5629 5593 5579 5576 5592 5609 5614 5615 5608 5605 5603 5601 5593 5587 5584 5580 5576 5571 5566 5560 5555 5549 5543 5536 5528 5520 5513 5506 5500 5490 5481 5472 5461 5450 5438 5425 5410 5396 5384 5372 5358 5346 5330 5317 5306 5298 5295
5642 5637 5609 5589 5584 5589 5589 5596 5590 5601 5600 5601 5592 5587 5581 5578 5574 5568 5562 5557 5553 5549 5543 5538 5532 5524 5516 5508 5502 5494 5484 5475 5465 5455 5445 5434 5421 5408 5395 5378 5361 5347 5334 5319 5306 5297 5292 5284 5279
5629 5624 5611 5600 5579 5570 5560 5582 5606 5606 5603 5595 5586 5583 5579 5570 5561 5553 5548 5545 5540 5534 5528 5522 5515 5509 5502 5496 5488 5478 5469 5461 5452 5440 5430 5419 5408 5389 5372 5356 5339 5321 5311 5299 5293 5287 5281 5274 5267
5637 5629 5612 5577 5592 5554 5552 5575 5609 5605 5599 5593 5585 5578 5569 5560 5550 5544 5541 5535 5529 5522 5517 5511 5504 5497 5491 5483 5474 5465 5456 5447 5436 5426 5414 5399 5386 5371 5354 5337 5320 5303 5294 5286 5280 5275 5267 5261 5254